STARLINK-32791, 62530

Orbit data source: Space-Track

STARLINK-32791, 62530 is a payload satellite owned by SpaceX/Seattle (US) in LEO that was launched on Wed, 08 Jan 2025 UTC via an FALCON 9 launch vehicle from the Air Force Eastern Test Range (AFETR). Payload-class satellites include a variety of spacecraft equipped with specific instruments for various scientific and technological missions. These include communications satellites like Starlink; space stations such as the ISS; scientific satellites like the Hubble; Earth observation satellites from companies like Planet Labs, Umbra, and HawkEye 360; GPS; miniature CubeSats for education and research; and military/defense satellites.

Loading next visibility...
Identifier
62530, 2025-004V
Orbit
LEO
Last TLE update
22 hours ago
Origin
Manufacturer
SpaceX/Seattle
Mission
Operational Commercial Communications
Bus & Motor
STARLINK V2M, Unknown motor
Mass
730 kg wet, ~700 kg dry
Launch date (UTC)
2025-01-08 (6 months ago)
Launch vehicle
FALCON 9
Launch site
Air Force Eastern Test Range (AFETR)
Object type
Payload
Rocket body
Debris
Shape & HBR
Box + 2 Pan, 29 m
Radar Cross Section
33.884 m², Large (>1 m²)

Expand to show TLE details & history

TLE from 22 hours ago
0 STARLINK-32791
1 62530U 25004V   25186.03296710  .00017170  00000-0  63164-3 0  9996
2 62530  43.0017 178.4238 0001181 258.2650 101.8069 15.27600388 28583
Epoch: 2025-07-05T00:47Z
TLE epoch observation values (Epoch: 2025-07-05T00:47:28.357Z)
Latitude
-0.00003°
Longitude
-116.72121°
Altitude
482.93 km
Speed
7.626 km/s
True Right ascension
11h 53m 41s
True Declination
0° 00' 00"
Sunlit
Object was in daylight at epoch
Visualization orbit readout
Latitude
18.69123°
Longitude
-100.77451°
Altitude
482.588 km
Speed
7.627 km/s
Apparent Right ascension
16h 09m 06s
Apparent Declination
-28° 16' 07"
Sunlit
Object is in daylight
Visualization observer readout
Local Sidereal Time
10:49:10
Azimuth
118.021° SE
Elevation
-10.742°
Doppler factor
1
Orbital elements
Apogee altitude
485.743 km
Perigee altitude
484.122 km
Semi-major axis
6,863.07 km
Eccentricity
0.00012
Inclination
43.0017°
RAAN
178.4238°
Arg. of periapsis
258.265°
True anomaly
Unknown
Mean anomaly
101.8069°
Eccentric anomaly
Unknown
Mean motion
3.81738 °/min
Orbital period
94.31 mins
BSTAR
0.00063164
Loading maneuver chart data...
Loading SW <> Apogee altitude chart data...
Loading historical data...
Loading historical data...
Loading historical data...
Loading historical data...
Loading historical data...
Loading historical data...
Loading historical data...

STARLINK-32791 Visibility forecast

Observer location: undefined°, undefined°

Span
Click to sort rows by Start time (UTC) header in descending order
Start Az.
Max El. time (UTC)
Max El. Az.
Max El.
End time (UTC)
End Az.
5 mins2025-07-06 02:04:54.768Z198.07° SSW2025-07-06 02:07:54.768Z142.328° SSE21.352°2025-07-06 02:09:54.768Z101.944° ESE
6 mins2025-07-06 03:43:54.768Z251.589° W2025-07-06 03:46:54.768Z69.359° E42.442°2025-07-06 03:49:54.768Z71.836° E
5 mins2025-07-06 05:23:54.768Z296.623° NW2025-07-06 05:25:54.768Z21.269° NNE37.117°2025-07-06 05:28:54.768Z75.597° E
5 mins2025-07-06 07:02:54.768Z291.136° WNW2025-07-06 07:04:54.768Z71.571° E44.37°2025-07-06 07:07:54.768Z105.254° ESE
4 mins2025-07-06 08:41:54.768Z249.877° W2025-07-06 08:43:54.768Z199.286° SSW22.919°2025-07-06 08:45:54.768Z161.962° S
|